SCP
0 0 0 0 0 0 0 0 0 0 0 0 0 0 0 0 0 0 0 0 0 0 0 0 0 0 0 0 0 0 0 0 0 0 0 0 0 0 0 0 0 0 0 0 0 -0 0 0 0 0 0 0 0 0
0 0 0 0 0 0 0 0 0 0 0 0 0 0 0 0 0 0 0 0 0 0 0 0 0 0 0 0 0 0 0 0 0 0 0 0 0 0 0 0 0 0 0 0 0 0 0 0 0 0 0 0 0 0
0 0 0 0 0 0 0 0 0 0 0 0 0 0 0 0 0 0 0 0 0 0 0 0 0 0 0 0 0 0 0 0 0 0 0 0 0 0 0 0 0 0 0 0 0 0 0 0 0 0 0 0 0 0
0 0 0 0 0 0 0 0 0 0 0 0 0 0 0 0 0 0 0 0 0 0 0 0 0 0 0 0 0 0 0 0 0 0 0 0 0 0 0 0 0 0 0 0 0 0 0 0 0 0 0 0 0 0
0 0 0 0 0 0 0 0 0 0 0 0 0 0 0 0 0 0 0 0 0 0 0 0 0 -0 0 0 0 0 0 0 0 0 0 0 0 0 0 0 0 0 0 0 0 0 0 0 0 0 0 0 -0 -0
0 0 0 0 0 0 0 0 0 0 0 0 0 0 0 0 0 0 0 0 0 0 0 0 0 0 0 0 0 0 0 0 0 0 0 0 0 0 0 0 0 0 0 0 0 0 0 0 0 0 0 0 -0 0
0 0 0 0 0 0 0 0 0 0 0 0 0 0 0 0 0 0 0 0 0 0 0 0 0 0 0 0 0 0 0 0 0 0 0 0 0 0 0 0 0 0 0 0 0 0 0 0 0 0 0 -0 0 -0
0 0 0 0 0 0 0 0 0 0 0 0 0 0 0 0 0 0 0 0 0 0 0 0 0 0 0 0 0 0 0 0 0 0 0 0 -0 0 0 0 -0 0 0 0 0 0 0 0 -0 0 -0 -0 -0 0
0 0 0 0 0 0 0 0 0 0 0 0 0 0 0 0 0 0 0 0 0 0 0 0 0 0 0 -0 -0 0 0 0 0 0 -0 0 0 0 0 0 0 0 0 0 0 0 0 0 -0 0 0 -0 -0 0
0 0 0 0 0 0 0 0 0 0 0 0 0 0 0 0 0 0 0 0 0 0 0 0 0 0 -0 -0 0 0 0 -0 -0 0 -0 0 0 0 0 0 0 0 -0 0 0 0 0 0 0 0 -0 -0 -0 0
0 0 0 0 0 0 0 0 0 0 0 0 0 0 0 0 0 0 0 0 0 0 0 0 0 0 0 0 0 0 0 0 0 0 0 0 0 0 0 0 -0 -0 -0 -0 0 0 0 0 0 0 0 0 0 0
0 0 0 0 0 0 0 0 0 0 0 0 0 0 0 0 0 0 0 0 0 0 0 0 0 0 0 0 0 0 0 0 -0 0 0 0 0 0 0 -0 -0 0 0 0 0 0 0 -0 -0 -0 0 -0 0 -0
0 0 0 0 0 0 0 0 -0 0 0 0 0 0 0 0 0 0 0 0 0 0 0 0 0 0 0 0 0 0 0 -0 0 0 -0 0 0 0 -0 0 0 -0 -0 -0 -0 0 0 -0 -0 -0 0 0 0 0
0 0 0 0 0 0 0 0 -0 0 0 0 0 0 0 0 0 0 0 0 0 0 0 -0 0 0 0 0 0 0 0 0 0 0 0 0 0 0 0 0 0 -0 0 -0 -0 0 -0 -0 0 0 0 0 0 0
0 0 0 0 0 0 0 0 -0 0 0 0 0 0 0 0 0 0 0 0 0 0 0 0 -0 0 0 0 0 0 0 0 0 0 0 0 0 0 0 0 0 0 0 0 0 0 0 0 0 0 0 0 -0 0
0 0 0 0 0 0 0 0 0 0 0 0 0 0 0 0 0 0 0 0 0 0 0 0 0 0 0 0 0 0 0 0 0 0 -0 0 0 0 0 0 0 0 0 0 0 0 0 0 0 0 0 0 0 0
0 0 0 0 0 0 0 0 0 0 0 0 0 0 0 0 0 0 0 -0 0 0 0 0 0 0 0 0 0 0 0 -0 -0 0 0 0 0 0 0 0 0 0 0 0 0 0 0 0 0 0 0 0 0 0
0 0 0 0 0 0 0 0 0 0 0 0 0 0 0 0 0 0 0 0 0 0 -0 0 0 0 0 0 0 0 0 -0 0 0 0 0 0 0 0 0 0 0 0 0 0 0 -0 -0 0 0 0 -0 0 0
0 0 0 0 0 0 0 0 0 0 0 0 0 0 0 0 0 0 0 -0 0 0 0 0 0 0 0 0 0 0 0 0 0 0 0 0 0 0 0 0 0 0 0 0 0 0 0 0 0 0 0 -0 0 0
0 0 0 0 0 0 0 0 0 0 0 0 0 0 0 0 0 0 0 0 -0 -0 0 0 0 0 0 0 0 0 0 0 0 0 0 0 0 0 0 0 0 0 0 0 0 0 -0 -0 0 -0 -0 0 0 0
0 0 0 0 0 0 0 0 0 0 0 0 0 0 0 0 0 0 0 0 0 0 0 0 0 0 0 0 0 0 0 0 0 0 0 0 0 0 0 0 0 0 -0 -0 -0 -0 -0 -0 -0 0 0 0 0 0
0 0 0 0 0 0 0 0 0 0 0 0 0 0 0 0 0 0 0 0 0 0 0 0 0 0 0 0 0 0 0 0 0 0 0 0 -0 0 -0 -0 0 -0 -0 -0 -0 0 0 0 0 0 0 0 0 0
0 0 0 0 0 0 0 0 0 0 0 0 0 0 0 0 0 0 0 0 0 0 0 0 0 0 0 0 -0 -0 -0 0 0 0 0 0 -0 -0 0 -0 -0 0 0 0 0 0 0 0 0 0 -0 0 0 0
0 0 0 0 0 0 0 0 0 0 0 0 0 0 0 0 0 0 0 0 0 0 -0 -0 -0 0 0 0 0 0 0 -0 0 -0 0 0 0 -0 0 0 0 0 0 0 0 0 0 0 0 0 0 0 0 0
0 0 0 0 0 0 0 0 0 0 0 0 0 0 0 0 0 -0 -0 0 -0 -0 -0 0 0 -0 -0 0 0 -0 -0 -0 -0 -0 -0 -0 -0 0 0 0 -0 0 0 0 0 0 0 0 0 0 0 0 0 0
0 0 0 0 0 0 0 0 0 0 0 0 0 0 0 0 0 -0 0 -0 0 0 0 0 0 0 0 0 0 0 0 -0 0 0 -0 -0 0 0 -0 0 0 0 0 0 0 0 0 0 0 0 0 0 0 0
0 0 0 0 0 0 0 0 0 0 0 0 -0 -0 0 0 0 0 0 0 0 0 0 0 -0 0 0 0 -0 -0 -0 -0 -0 -0 -0 -0 -0 0 0 0 0 0 0 0 0 0 0 0 0 0 0 0 0 0
0 0 0 0 0 0 0 0 0 0 0 0 0 0 0 0 0 0 0 0 0 0 0 0 0 0 0 0 -0 0 -0 -0 0 -0 -0 -0 0 0 0 0 0 -0 0 0 0 0 0 0 0 0 0 0 0 0
0 0 0 0 0 0 0 0 0 0 0 0 0 0 0 0 0 0 0 0 0 0 0 -0 0 0 0 0 -0 0 0 0 0 -0 -0 0 -0 -0 0 -0 -0 0 0 0 0 0 0 0 0 0 0 0 0 0
0 0 0 0 0 0 0 0 0 0 0 0 0 0 0 0 0 0 0 0 0 -0 0 0 0 0 -0 0 -0 -0 -0 -0 -0 -0 -0 0 -0 -0 0 -0 0 0 0 0 0 0 0 0 0 0 0 0 0 0
0 0 0 0 0 0 0 0 0 0 0 0 0 0 0 0 -0 -0 0 0 0 0 0 -0 -0 -0 -0 -0 -0 -0 -0 -0 -0 -0 -0 -0 -0 0 0 0 0 0 0 0 0 0 0 0 0 0 0 0 0 0
0 0 0 0 0 0 0 0 0 0 0 0 0 0 0 -0 -0 0 -0 0 0 -0 0 0 -0 0 0 0 0 -0 -0 0 0 0 -0 -0 0 0 0 0 0 0 0 0 0 0 0 0 0 0 0 0 0 0
0 0 0 0 0 0 0 0 0 0 -0 -0 0 -0 -0 -0 0 0 0 -0 0 0 0 -0 -0 0 0 -0 0 -0 -0 -0 -0 0 -0 0 0 0 0 0 0 0 0 0 0 0 0 0 0 0 0 0 0 0
Wind_Speed_500mb
45 43 41 40 40 39 40 41 39 40 42 38 38 37 32 29 24 26 19 15 23 33 52 46 37 36 31 27 16 23 18 27 18 21 20 20 21 7 11 4 13 9 6 12 2 13 7 32 19 12 4 9 7 9
48 45 44 41 39 37 35 38 37 39 40 35 35 32 30 30 26 26 23 9 19 30 50 40 40 38 37 37 37 35 30 21 15 13 15 13 20 7 8 12 10 6 5 5 15 8 26 30 14 5 6 9 19 14
50 47 44 42 38 37 34 34 36 36 40 37 34 32 31 32 30 29 18 15 18 29 50 51 45 37 40 45 34 32 32 26 26 21 20 17 24 13 11 17 5 5 15 11 22 5 6 2 3 8 14 27 24 9
46 44 40 39 38 37 36 32 33 36 38 38 35 32 25 25 28 29 26 10 17 17 15 21 7 13 21 21 28 35 41 37 25 23 28 19 23 23 17 12 11 15 31 7 8 17 18 18 10 1 11 24 31 16
40 42 42 38 35 36 35 30 31 35 39 39 30 27 26 25 24 19 24 22 24 13 19 40 45 26 18 21 22 25 25 29 34 31 17 19 33 27 24 22 18 14 4 16 5 6 8 9 7 3 14 40 29 35
45 42 40 37 36 36 33 29 29 34 38 34 34 32 29 26 29 22 8 16 21 14 13 8 16 18 18 19 18 23 29 30 32 35 23 33 38 23 13 18 8 7 9 23 26 11 14 11 9 10 23 30 8 9
47 44 39 37 35 34 31 28 25 35 37 24 28 30 31 31 37 19 6 6 23 18 10 12 13 25 16 18 16 18 23 27 28 35 38 35 36 18 17 21 31 31 29 31 14 5 15 9 10 23 27 19 17 10
46 44 41 38 34 32 30 26 29 37 29 31 28 27 27 30 27 27 6 3 20 11 11 9 15 19 24 19 19 22 23 26 32 32 39 29 37 36 18 26 32 21 17 20 22 13 14 10 39 31 13 16 8 20
44 42 39 36 32 32 28 24 36 43 28 25 34 32 30 20 21 17 18 19 15 10 10 14 18 3 11 26 24 19 19 13 27 21 29 26 21 14 19 39 25 12 18 17 17 21 18 9 35 24 32 46 27 16
44 41 38 35 31 31 27 35 42 33 37 42 45 21 11 22 18 15 11 13 14 17 22 25 39 16 25 25 20 11 18 14 15 24 31 22 24 16 28 23 21 25 33 27 35 16 15 16 8 22 20 15 19 15
41 39 36 34 31 32 31 42 38 42 54 43 20 11 15 33 16 10 12 15 19 10 20 28 41 25 16 12 6 13 8 10 14 6 11 12 7 12 28 21 41 28 28 26 19 17 23 14 44 5 27 10 14 14
38 36 36 35 30 33 40 42 54 71 47 28 22 21 32 12 11 11 9 11 13 10 12 19 24 34 11 2 9 6 3 2 6 21 10 1 3 8 18 39 51 19 16 7 5 29 2 61 65 20 18 17 20 14
36 36 36 35 35 33 49 53 73 48 41 35 12 12 12 11 6 13 18 13 11 10 10 20 12 18 14 6 12 8 6 7 18 7 7 3 6 13 8 18 30 33 29 12 21 36 40 47 41 28 16 14 11 10
35 35 35 36 36 45 44 72 67 63 19 11 13 11 13 12 15 16 19 11 13 16 23 19 4 13 19 12 8 8 5 3 4 5 2 4 8 6 9 15 18 25 38 46 38 26 20 22 21 15 13 11 13 11
35 32 32 35 47 49 59 75 68 28 4 5 8 7 17 25 21 17 11 6 11 8 10 29 11 16 7 8 10 3 6 4 2 5 1 8 6 12 12 14 20 21 17 12 17 17 16 11 7 9 9 10 9 12
33 32 40 51 50 59 68 66 49 17 6 6 9 13 15 25 9 14 16 11 13 15 6 5 7 10 14 5 3 6 8 7 5 7 29 17 5 9 13 16 20 20 20 19 15 14 12 1 6 4 5 11 14 13
39 30 44 55 38 54 65 66 11 7 6 9 10 17 15 23 6 11 24 26 16 11 11 3 11 8 5 4 11 8 5 4 16 14 11 13 11 15 17 19 20 23 20 16 12 9 6 7 4 7 7 10 11 12
28 52 54 57 72 58 54 16 7 13 14 25 14 29 31 7 10 17 19 11 4 7 7 7 15 9 4 6 6 6 18 14 17 19 19 14 13 18 22 20 14 10 11 18 18 16 10 17 11 2 9 6 17 21
55 58 74 83 58 20 10 17 9 8 9 11 7 8 7 2 8 6 4 22 14 9 23 15 5 10 5 10 9 16 18 24 21 19 19 16 17 17 18 12 6 4 7 7 12 8 26 22 18 8 10 8 16 19
68 73 63 60 17 7 8 8 10 10 5 20 22 12 7 10 9 6 5 11 30 60 26 3 9 22 21 22 19 22 19 18 19 21 15 12 13 14 18 11 12 12 10 7 8 13 15 11 5 13 13 14 16 16
62 65 51 27 9 6 5 7 5 8 5 10 12 12 6 5 3 5 4 1 2 5 11 20 15 17 22 19 18 15 16 16 15 11 12 12 17 10 13 11 10 9 7 3 5 9 16 24 15 15 18 25 24 23
60 47 32 14 2 2 2 2 3 4 0 7 12 6 3 4 3 7 9 6 7 12 15 18 16 9 17 16 14 12 13 13 11 9 4 14 21 19 19 9 6 4 16 18 16 18 27 19 20 22 29 31 30 29
40 25 8 1 3 3 1 2 3 1 2 9 6 8 7 6 4 2 5 5 6 10 6 13 10 9 7 4 4 4 9 6 11 11 4 8 8 4 13 23 23 22 23 23 19 17 23 27 33 17 29 28 27 27
11 2 0 3 5 2 7 3 4 3 3 4 6 2 4 4 3 3 4 9 14 14 16 13 12 11 4 2 11 11 15 12 12 14 19 17 5 10 13 18 21 28 24 18 22 20 20 22 26 24 26 25 28 28
2 5 1 6 0 6 8 9 8 5 4 4 5 5 6 8 4 7 9 12 21 21 19 15 11 12 2 6 7 8 10 14 21 14 12 5 15 19 16 21 29 8 25 24 25 26 30 26 24 24 22 27 29 29
4 3 5 3 6 4 7 6 5 6 7 3 12 10 13 10 11 6 7 13 18 16 12 10 3 7 13 12 9 23 20 4 20 23 15 14 13 18 22 22 20 24 25 24 25 28 28 28 27 27 26 30 29 23
5 4 3 1 2 8 6 12 11 10 9 8 8 7 5 4 4 8 10 8 8 15 22 29 27 27 19 14 20 28 20 25 21 19 21 19 18 18 22 23 21 27 21 21 25 24 26 29 26 26 25 25 25 27
4 6 7 10 9 11 8 7 7 7 8 10 8 7 6 11 8 20 10 17 12 21 20 23 24 30 24 23 26 31 31 21 18 10 6 11 20 21 20 19 20 25 19 22 23 21 26 22 22 23 26 26 25 26
3 6 10 13 12 11 17 12 9 8 10 10 5 5 9 11 20 17 21 28 28 29 25 31 21 14 16 19 19 19 22 21 18 17 19 17 19 21 22 22 21 21 20 22 23 27 31 21 19 21 23 24 24 22
9 13 7 20 21 11 13 12 11 13 19 21 21 14 15 13 29 31 22 23 24 29 26 22 21 17 16 16 22 22 23 22 22 18 22 24 18 17 20 22 23 22 21 20 20 24 28 22 21 21 24 24 27 27
4 7 14 16 10 8 16 22 18 18 17 23 28 27 20 17 26 24 22 20 20 20 17 20 20 20 23 21 16 12 18 18 18 19 11 15 15 18 20 21 21 21 20 21 21 23 25 22 23 23 25 28 29 30
4 6 14 6 8 19 18 18 23 28 20 5 2 7 12 13 20 19 17 18 18 20 18 18 17 16 14 15 13 15 12 17 22 22 23 22 21 19 19 18 17 19 19 17 19 21 23 23 24 25 26 27 29 31
33 38 28 18 9 6 10 13 11 9 10 10 10 9 9 20 18 12 16 16 13 13 15 15 13 14 16 16 16 11 13 28 27 33 39 35 30 20 21 21 19 19 19 19 19 19 21 22 23 25 26 28 30 33
Wind_Direction_500mb
270 273 276 276 272 265 266 261 253 247 240 237 243 246 246 246 235 243 221 257 255 271 278 273 284 286 277 263 267 301 307 233 258 252 267 277 268 324 289 4 277 319 292 298 149 231 273 3 17 16 345 323 345 59
263 267 270 271 271 266 267 264 254 244 233 228 237 239 246 236 228 231 228 247 271 257 267 289 272 262 260 262 277 285 284 300 318 316 341 316 311 280 6 301 108 262 102 300 315 333 30 351 80 45 337 351 359 45
259 264 265 264 266 265 264 264 256 243 227 222 232 236 245 228 220 224 215 250 285 278 287 271 265 264 252 243 238 261 259 285 289 309 297 288 294 313 262 245 327 94 192 196 286 8 113 202 356 346 14 8 26 98
253 256 264 262 262 265 263 260 258 236 218 216 226 232 235 216 216 214 206 274 266 286 282 294 232 250 249 231 234 238 248 263 284 283 283 282 284 296 290 322 265 248 183 241 44 334 317 7 28 22 338 12 12 330
250 257 258 257 260 264 261 257 255 232 208 214 218 230 219 212 207 217 214 235 246 261 308 300 298 267 232 210 228 237 245 252 250 259 238 246 262 279 289 289 285 60 93 311 235 281 83 21 313 37 37 56 49 287
250 251 253 254 260 261 260 254 253 212 202 211 220 224 213 200 196 191 238 227 232 255 285 283 274 231 229 235 237 239 237 232 240 247 263 264 269 285 280 278 277 116 193 276 296 319 118 119 158 132 86 122 122 30
246 247 254 249 254 255 253 251 246 198 199 203 214 211 200 199 181 177 160 156 190 202 253 258 251 198 217 219 240 220 209 221 229 235 246 265 272 262 254 262 276 297 230 242 221 250 136 57 221 158 174 187 201 269
243 242 248 242 246 246 239 238 206 195 199 200 207 180 176 164 199 210 258 255 179 199 256 272 269 193 186 206 208 210 211 219 238 244 254 238 248 239 249 264 263 290 293 275 266 241 207 175 148 83 254 209 226 108
238 236 239 237 241 232 225 223 186 192 179 175 150 145 160 179 190 216 208 211 188 247 277 273 257 73 210 239 218 176 227 226 234 228 236 249 245 239 232 229 247 266 315 268 272 230 208 175 150 126 221 243 191 121
231 230 226 229 228 213 212 192 178 179 168 157 154 148 189 199 164 190 184 194 210 218 228 261 280 276 228 218 206 204 202 239 249 214 225 219 239 62 24 6 327 278 271 283 294 237 216 235 100 174 243 176 122 85
219 216 218 218 209 205 198 184 176 171 153 162 166 186 130 151 152 201 212 211 199 231 219 234 232 255 244 251 264 224 173 334 276 258 251 239 187 1 344 336 287 270 267 254 85 57 3 7 249 136 325 182 149 129
207 207 207 206 201 197 189 183 164 159 162 170 163 141 138 182 193 213 203 212 206 237 191 210 205 227 267 277 270 6 120 83 305 335 303 112 316 261 333 301 330 306 249 208 165 1 258 253 279 179 99 99 97 107
200 202 200 197 194 197 182 174 163 164 152 145 138 166 178 193 177 208 200 213 210 203 183 201 182 192 226 261 249 270 201 167 152 138 329 3 161 203 207 313 354 12 28 51 134 127 196 246 76 66 79 59 47 39
193 193 192 187 195 189 176 170 164 170 172 175 179 175 214 190 212 216 222 233 180 202 167 174 260 216 204 173 248 263 251 55 100 90 90 231 168 21 59 340 3 19 27 34 -0 56 53 48 47 37 34 20 19 18
181 184 182 190 178 177 172 164 168 178 109 248 224 219 211 225 236 218 184 141 162 138 191 151 224 240 199 221 215 302 283 301 68 85 172 131 58 38 33 357 342 338 359 3 29 29 21 40 60 73 44 41 28 22
168 169 172 164 165 163 163 170 174 173 262 273 248 255 254 239 211 199 165 146 159 198 74 333 262 115 237 202 273 249 359 44 56 34 273 127 69 3 352 340 335 330 329 327 344 330 314 266 77 43 13 21 22 349
137 154 156 152 159 163 165 172 183 117 244 253 256 245 262 284 192 250 148 179 175 251 238 175 239 183 296 230 142 25 54 175 213 120 72 53 8 341 328 318 316 322 322 324 289 305 7 13 320 354 36 3 335 310
139 149 157 158 145 150 160 145 136 204 240 228 243 232 207 203 168 114 131 187 163 47 47 281 294 237 39 80 80 91 286 137 70 35 56 34 359 337 321 299 299 314 328 327 306 292 310 306 290 257 41 335 299 302
147 140 140 138 134 98 116 170 227 263 244 351 273 84 96 166 141 102 130 113 47 241 324 310 277 69 352 59 23 298 11 24 4 32 29 23 8 353 343 331 304 290 303 354 41 38 323 315 315 354 324 334 320 334
139 134 143 150 127 132 140 178 210 258 34 201 197 169 154 133 146 190 235 201 187 175 208 306 50 17 93 69 51 37 27 10 4 12 10 18 14 5 12 28 82 74 82 89 9 271 315 2 336 251 300 353 343 345
140 144 135 128 120 169 186 152 231 257 356 104 140 167 109 103 304 190 207 289 76 39 27 51 83 66 56 55 49 33 36 14 15 18 13 15 2 11 74 91 76 58 4 53 101 61 1 333 341 350 349 9 360 329
130 140 135 119 326 10 149 204 281 145 317 160 139 100 242 118 163 97 241 251 94 25 67 75 70 353 57 48 19 17 10 6 20 21 62 71 72 101 100 70 358 2 65 37 33 14 14 21 359 341 356 338 322 333
104 100 99 161 74 59 138 219 234 29 191 171 151 130 212 171 114 205 247 107 74 94 67 44 8 339 18 13 355 6 14 7 29 29 82 126 128 81 340 345 345 19 58 41 34 29 3 353 2 0 340 344 339 337
54 58 299 201 130 157 155 201 108 129 96 175 173 129 58 63 319 265 246 92 52 35 43 22 343 318 281 17 72 97 50 49 65 88 63 52 333 5 27 17 46 48 29 16 13 8 2 359 5 358 353 348 342 338
330 2 297 289 51 135 161 167 201 151 156 132 169 135 49 347 24 350 32 24 4 359 328 310 296 291 339 159 120 80 93 110 103 76 80 141 86 45 67 37 50 77 358 5 6 2 7 19 7 356 -0 358 354 347
54 74 36 34 149 138 132 128 112 165 180 133 50 66 25 30 18 6 331 339 354 3 349 343 315 149 131 127 98 76 129 55 107 57 66 84 64 40 30 28 19 10 9 5 1 357 353 350 346 343 341 346 349 3
39 51 101 97 32 99 122 109 91 71 48 43 60 48 51 47 256 250 271 344 349 37 82 74 76 87 85 79 63 62 80 51 69 47 50 52 49 42 29 24 17 360 3 1 0 358 356 354 354 353 351 351 351 358
30 357 89 107 52 61 69 100 59 55 32 37 72 44 25 5 350 331 354 41 123 117 99 95 93 82 49 61 73 49 52 58 66 34 343 47 51 38 23 13 12 14 5 3 9 3 2 -0 1 4 6 4 2 3
66 69 127 77 80 66 35 40 51 57 20 45 73 46 38 354 8 50 64 89 89 90 84 88 86 90 72 59 55 60 53 27 33 39 34 31 21 12 5 4 4 4 5 1 2 13 7 17 14 12 9 5 4 10
56 48 91 73 48 58 36 38 77 89 90 96 99 127 132 79 78 75 71 71 73 80 84 83 73 51 53 53 51 48 52 46 41 35 21 15 15 2 4 3 2 1 2 4 360 356 9 22 14 15 14 15 11 12
80 51 55 57 66 73 99 99 99 103 94 102 103 91 92 94 80 73 50 55 68 63 54 55 53 43 36 31 21 13 29 26 19 18 32 18 2 358 1 359 357 358 4 7 7 7 16 19 18 17 14 13 10 7
131 93 108 105 109 131 120 116 109 117 137 133 124 119 127 94 83 57 50 38 53 62 49 41 39 37 28 28 29 31 30 23 13 13 1 354 351 5 9 6 12 12 11 10 10 9 16 18 14 13 9 6 4 1
111 112 110 106 135 177 171 174 164 146 142 165 95 127 135 74 72 69 51 43 41 29 25 28 30 28 34 35 30 14 12 8 4 4 1 11 19 28 31 34 32 26 25 14 14 9 8 12 9 6 4 2 1 358
Wind_Speed_850mb
45 43 41 40 40 39 40 41 39 40 42 38 38 37 32 29 24 26 19 15 23 33 52 46 37 36 31 27 16 23 18 27 18 21 20 20 21 7 11 4 13 9 6 12 2 13 7 32 19 12 4 9 7 9
48 45 44 41 39 37 35 38 37 39 40 35 35 32 30 30 26 26 23 9 19 30 50 40 40 38 37 37 37 35 30 21 15 13 15 13 20 7 8 12 10 6 5 5 15 8 26 30 14 5 6 9 19 14
50 47 44 42 38 37 34 34 36 36 40 37 34 32 31 32 30 29 18 15 18 29 50 51 45 37 40 45 34 32 32 26 26 21 20 17 24 13 11 17 5 5 15 11 22 5 6 2 3 8 14 27 24 9
46 44 40 39 38 37 36 32 33 36 38 38 35 32 25 25 28 29 26 10 17 17 15 21 7 13 21 21 28 35 41 37 25 23 28 19 23 23 17 12 11 15 31 7 8 17 18 18 10 1 11 24 31 16
40 42 42 38 35 36 35 30 31 35 39 39 30 27 26 25 24 19 24 22 24 13 19 40 45 26 18 21 22 25 25 29 34 31 17 19 33 27 24 22 18 14 4 16 5 6 8 9 7 3 14 40 29 35
45 42 40 37 36 36 33 29 29 34 38 34 34 32 29 26 29 22 8 16 21 14 13 8 16 18 18 19 18 23 29 30 32 35 23 33 38 23 13 18 8 7 9 23 26 11 14 11 9 10 23 30 8 9
47 44 39 37 35 34 31 28 25 35 37 24 28 30 31 31 37 19 6 6 23 18 10 12 13 25 16 18 16 18 23 27 28 35 38 35 36 18 17 21 31 31 29 31 14 5 15 9 10 23 27 19 17 10
46 44 41 38 34 32 30 26 29 37 29 31 28 27 27 30 27 27 6 3 20 11 11 9 15 19 24 19 19 22 23 26 32 32 39 29 37 36 18 26 32 21 17 20 22 13 14 10 39 31 13 16 8 20
44 42 39 36 32 32 28 24 36 43 28 25 34 32 30 20 21 17 18 19 15 10 10 14 18 3 11 26 24 19 19 13 27 21 29 26 21 14 19 39 25 12 18 17 17 21 18 9 35 24 32 46 27 16
44 41 38 35 31 31 27 35 42 33 37 42 45 21 11 22 18 15 11 13 14 17 22 25 39 16 25 25 20 11 18 14 15 24 31 22 24 16 28 23 21 25 33 27 35 16 15 16 8 22 20 15 19 15
41 39 36 34 31 32 31 42 38 42 54 43 20 11 15 33 16 10 12 15 19 10 20 28 41 25 16 12 6 13 8 10 14 6 11 12 7 12 28 21 41 28 28 26 19 17 23 14 44 5 27 10 14 14
38 36 36 35 30 33 40 42 54 71 47 28 22 21 32 12 11 11 9 11 13 10 12 19 24 34 11 2 9 6 3 2 6 21 10 1 3 8 18 39 51 19 16 7 5 29 2 61 65 20 18 17 20 14
36 36 36 35 35 33 49 53 73 48 41 35 12 12 12 11 6 13 18 13 11 10 10 20 12 18 14 6 12 8 6 7 18 7 7 3 6 13 8 18 30 33 29 12 21 36 40 47 41 28 16 14 11 10
35 35 35 36 36 45 44 72 67 63 19 11 13 11 13 12 15 16 19 11 13 16 23 19 4 13 19 12 8 8 5 3 4 5 2 4 8 6 9 15 18 25 38 46 38 26 20 22 21 15 13 11 13 11
35 32 32 35 47 49 59 75 68 28 4 5 8 7 17 25 21 17 11 6 11 8 10 29 11 16 7 8 10 3 6 4 2 5 1 8 6 12 12 14 20 21 17 12 17 17 16 11 7 9 9 10 9 12
33 32 40 51 50 59 68 66 49 17 6 6 9 13 15 25 9 14 16 11 13 15 6 5 7 10 14 5 3 6 8 7 5 7 29 17 5 9 13 16 20 20 20 19 15 14 12 1 6 4 5 11 14 13
39 30 44 55 38 54 65 66 11 7 6 9 10 17 15 23 6 11 24 26 16 11 11 3 11 8 5 4 11 8 5 4 16 14 11 13 11 15 17 19 20 23 20 16 12 9 6 7 4 7 7 10 11 12
28 52 54 57 72 58 54 16 7 13 14 25 14 29 31 7 10 17 19 11 4 7 7 7 15 9 4 6 6 6 18 14 17 19 19 14 13 18 22 20 14 10 11 18 18 16 10 17 11 2 9 6 17 21
55 58 74 83 58 20 10 17 9 8 9 11 7 8 7 2 8 6 4 22 14 9 23 15 5 10 5 10 9 16 18 24 21 19 19 16 17 17 18 12 6 4 7 7 12 8 26 22 18 8 10 8 16 19
68 73 63 60 17 7 8 8 10 10 5 20 22 12 7 10 9 6 5 11 30 60 26 3 9 22 21 22 19 22 19 18 19 21 15 12 13 14 18 11 12 12 10 7 8 13 15 11 5 13 13 14 16 16
62 65 51 27 9 6 5 7 5 8 5 10 12 12 6 5 3 5 4 1 2 5 11 20 15 17 22 19 18 15 16 16 15 11 12 12 17 10 13 11 10 9 7 3 5 9 16 24 15 15 18 25 24 23
60 47 32 14 2 2 2 2 3 4 0 7 12 6 3 4 3 7 9 6 7 12 15 18 16 9 17 16 14 12 13 13 11 9 4 14 21 19 19 9 6 4 16 18 16 18 27 19 20 22 29 31 30 29
40 25 8 1 3 3 1 2 3 1 2 9 6 8 7 6 4 2 5 5 6 10 6 13 10 9 7 4 4 4 9 6 11 11 4 8 8 4 13 23 23 22 23 23 19 17 23 27 33 17 29 28 27 27
11 2 0 3 5 2 7 3 4 3 3 4 6 2 4 4 3 3 4 9 14 14 16 13 12 11 4 2 11 11 15 12 12 14 19 17 5 10 13 18 21 28 24 18 22 20 20 22 26 24 26 25 28 28
2 5 1 6 0 6 8 9 8 5 4 4 5 5 6 8 4 7 9 12 21 21 19 15 11 12 2 6 7 8 10 14 21 14 12 5 15 19 16 21 29 8 25 24 25 26 30 26 24 24 22 27 29 29
4 3 5 3 6 4 7 6 5 6 7 3 12 10 13 10 11 6 7 13 18 16 12 10 3 7 13 12 9 23 20 4 20 23 15 14 13 18 22 22 20 24 25 24 25 28 28 28 27 27 26 30 29 23
5 4 3 1 2 8 6 12 11 10 9 8 8 7 5 4 4 8 10 8 8 15 22 29 27 27 19 14 20 28 20 25 21 19 21 19 18 18 22 23 21 27 21 21 25 24 26 29 26 26 25 25 25 27
4 6 7 10 9 11 8 7 7 7 8 10 8 7 6 11 8 20 10 17 12 21 20 23 24 30 24 23 26 31 31 21 18 10 6 11 20 21 20 19 20 25 19 22 23 21 26 22 22 23 26 26 25 26
3 6 10 13 12 11 17 12 9 8 10 10 5 5 9 11 20 17 21 28 28 29 25 31 21 14 16 19 19 19 22 21 18 17 19 17 19 21 22 22 21 21 20 22 23 27 31 21 19 21 23 24 24 22
9 13 7 20 21 11 13 12 11 13 19 21 21 14 15 13 29 31 22 23 24 29 26 22 21 17 16 16 22 22 23 22 22 18 22 24 18 17 20 22 23 22 21 20 20 24 28 22 21 21 24 24 27 27
4 7 14 16 10 8 16 22 18 18 17 23 28 27 20 17 26 24 22 20 20 20 17 20 20 20 23 21 16 12 18 18 18 19 11 15 15 18 20 21 21 21 20 21 21 23 25 22 23 23 25 28 29 30
4 6 14 6 8 19 18 18 23 28 20 5 2 7 12 13 20 19 17 18 18 20 18 18 17 16 14 15 13 15 12 17 22 22 23 22 21 19 19 18 17 19 19 17 19 21 23 23 24 25 26 27 29 31
33 38 28 18 9 6 10 13 11 9 10 10 10 9 9 20 18 12 16 16 13 13 15 15 13 14 16 16 16 11 13 28 27 33 39 35 30 20 21 21 19 19 19 19 19 19 21 22 23 25 26 28 30 33
Wind_Direction_850mb
270 273 276 276 272 265 266 261 253 247 240 237 243 246 246 246 235 243 221 257 255 271 278 273 284 286 277 263 267 301 307 233 258 252 267 277 268 324 289 4 277 319 292 298 149 231 273 3 17 16 345 323 345 59
263 267 270 271 271 266 267 264 254 244 233 228 237 239 246 236 228 231 228 247 271 257 267 289 272 262 260 262 277 285 284 300 318 316 341 316 311 280 6 301 108 262 102 300 315 333 30 351 80 45 337 351 359 45
259 264 265 264 266 265 264 264 256 243 227 222 232 236 245 228 220 224 215 250 285 278 287 271 265 264 252 243 238 261 259 285 289 309 297 288 294 313 262 245 327 94 192 196 286 8 113 202 356 346 14 8 26 98
253 256 264 262 262 265 263 260 258 236 218 216 226 232 235 216 216 214 206 274 266 286 282 294 232 250 249 231 234 238 248 263 284 283 283 282 284 296 290 322 265 248 183 241 44 334 317 7 28 22 338 12 12 330
250 257 258 257 260 264 261 257 255 232 208 214 218 230 219 212 207 217 214 235 246 261 308 300 298 267 232 210 228 237 245 252 250 259 238 246 262 279 289 289 285 60 93 311 235 281 83 21 313 37 37 56 49 287
250 251 253 254 260 261 260 254 253 212 202 211 220 224 213 200 196 191 238 227 232 255 285 283 274 231 229 235 237 239 237 232 240 247 263 264 269 285 280 278 277 116 193 276 296 319 118 119 158 132 86 122 122 30
246 247 254 249 254 255 253 251 246 198 199 203 214 211 200 199 181 177 160 156 190 202 253 258 251 198 217 219 240 220 209 221 229 235 246 265 272 262 254 262 276 297 230 242 221 250 136 57 221 158 174 187 201 269
243 242 248 242 246 246 239 238 206 195 199 200 207 180 176 164 199 210 258 255 179 199 256 272 269 193 186 206 208 210 211 219 238 244 254 238 248 239 249 264 263 290 293 275 266 241 207 175 148 83 254 209 226 108
238 236 239 237 241 232 225 223 186 192 179 175 150 145 160 179 190 216 208 211 188 247 277 273 257 73 210 239 218 176 227 226 234 228 236 249 245 239 232 229 247 266 315 268 272 230 208 175 150 126 221 243 191 121
231 230 226 229 228 213 212 192 178 179 168 157 154 148 189 199 164 190 184 194 210 218 228 261 280 276 228 218 206 204 202 239 249 214 225 219 239 62 24 6 327 278 271 283 294 237 216 235 100 174 243 176 122 85
219 216 218 218 209 205 198 184 176 171 153 162 166 186 130 151 152 201 212 211 199 231 219 234 232 255 244 251 264 224 173 334 276 258 251 239 187 1 344 336 287 270 267 254 85 57 3 7 249 136 325 182 149 129
207 207 207 206 201 197 189 183 164 159 162 170 163 141 138 182 193 213 203 212 206 237 191 210 205 227 267 277 270 6 120 83 305 335 303 112 316 261 333 301 330 306 249 208 165 1 258 253 279 179 99 99 97 107
200 202 200 197 194 197 182 174 163 164 152 145 138 166 178 193 177 208 200 213 210 203 183 201 182 192 226 261 249 270 201 167 152 138 329 3 161 203 207 313 354 12 28 51 134 127 196 246 76 66 79 59 47 39
193 193 192 187 195 189 176 170 164 170 172 175 179 175 214 190 212 216 222 233 180 202 167 174 260 216 204 173 248 263 251 55 100 90 90 231 168 21 59 340 3 19 27 34 -0 56 53 48 47 37 34 20 19 18
181 184 182 190 178 177 172 164 168 178 109 248 224 219 211 225 236 218 184 141 162 138 191 151 224 240 199 221 215 302 283 301 68 85 172 131 58 38 33 357 342 338 359 3 29 29 21 40 60 73 44 41 28 22
168 169 172 164 165 163 163 170 174 173 262 273 248 255 254 239 211 199 165 146 159 198 74 333 262 115 237 202 273 249 359 44 56 34 273 127 69 3 352 340 335 330 329 327 344 330 314 266 77 43 13 21 22 349
137 154 156 152 159 163 165 172 183 117 244 253 256 245 262 284 192 250 148 179 175 251 238 175 239 183 296 230 142 25 54 175 213 120 72 53 8 341 328 318 316 322 322 324 289 305 7 13 320 354 36 3 335 310
139 149 157 158 145 150 160 145 136 204 240 228 243 232 207 203 168 114 131 187 163 47 47 281 294 237 39 80 80 91 286 137 70 35 56 34 359 337 321 299 299 314 328 327 306 292 310 306 290 257 41 335 299 302
147 140 140 138 134 98 116 170 227 263 244 351 273 84 96 166 141 102 130 113 47 241 324 310 277 69 352 59 23 298 11 24 4 32 29 23 8 353 343 331 304 290 303 354 41 38 323 315 315 354 324 334 320 334
139 134 143 150 127 132 140 178 210 258 34 201 197 169 154 133 146 190 235 201 187 175 208 306 50 17 93 69 51 37 27 10 4 12 10 18 14 5 12 28 82 74 82 89 9 271 315 2 336 251 300 353 343 345
140 144 135 128 120 169 186 152 231 257 356 104 140 167 109 103 304 190 207 289 76 39 27 51 83 66 56 55 49 33 36 14 15 18 13 15 2 11 74 91 76 58 4 53 101 61 1 333 341 350 349 9 360 329
130 140 135 119 326 10 149 204 281 145 317 160 139 100 242 118 163 97 241 251 94 25 67 75 70 353 57 48 19 17 10 6 20 21 62 71 72 101 100 70 358 2 65 37 33 14 14 21 359 341 356 338 322 333
104 100 99 161 74 59 138 219 234 29 191 171 151 130 212 171 114 205 247 107 74 94 67 44 8 339 18 13 355 6 14 7 29 29 82 126 128 81 340 345 345 19 58 41 34 29 3 353 2 0 340 344 339 337
54 58 299 201 130 157 155 201 108 129 96 175 173 129 58 63 319 265 246 92 52 35 43 22 343 318 281 17 72 97 50 49 65 88 63 52 333 5 27 17 46 48 29 16 13 8 2 359 5 358 353 348 342 338
330 2 297 289 51 135 161 167 201 151 156 132 169 135 49 347 24 350 32 24 4 359 328 310 296 291 339 159 120 80 93 110 103 76 80 141 86 45 67 37 50 77 358 5 6 2 7 19 7 356 -0 358 354 347
54 74 36 34 149 138 132 128 112 165 180 133 50 66 25 30 18 6 331 339 354 3 349 343 315 149 131 127 98 76 129 55 107 57 66 84 64 40 30 28 19 10 9 5 1 357 353 350 346 343 341 346 349 3
39 51 101 97 32 99 122 109 91 71 48 43 60 48 51 47 256 250 271 344 349 37 82 74 76 87 85 79 63 62 80 51 69 47 50 52 49 42 29 24 17 360 3 1 0 358 356 354 354 353 351 351 351 358
30 357 89 107 52 61 69 100 59 55 32 37 72 44 25 5 350 331 354 41 123 117 99 95 93 82 49 61 73 49 52 58 66 34 343 47 51 38 23 13 12 14 5 3 9 3 2 -0 1 4 6 4 2 3
66 69 127 77 80 66 35 40 51 57 20 45 73 46 38 354 8 50 64 89 89 90 84 88 86 90 72 59 55 60 53 27 33 39 34 31 21 12 5 4 4 4 5 1 2 13 7 17 14 12 9 5 4 10
56 48 91 73 48 58 36 38 77 89 90 96 99 127 132 79 78 75 71 71 73 80 84 83 73 51 53 53 51 48 52 46 41 35 21 15 15 2 4 3 2 1 2 4 360 356 9 22 14 15 14 15 11 12
80 51 55 57 66 73 99 99 99 103 94 102 103 91 92 94 80 73 50 55 68 63 54 55 53 43 36 31 21 13 29 26 19 18 32 18 2 358 1 359 357 358 4 7 7 7 16 19 18 17 14 13 10 7
131 93 108 105 109 131 120 116 109 117 137 133 124 119 127 94 83 57 50 38 53 62 49 41 39 37 28 28 29 31 30 23 13 13 1 354 351 5 9 6 12 12 11 10 10 9 16 18 14 13 9 6 4 1
111 112 110 106 135 177 171 174 164 146 142 165 95 127 135 74 72 69 51 43 41 29 25 28 30 28 34 35 30 14 12 8 4 4 1 11 19 28 31 34 32 26 25 14 14 9 8 12 9 6 4 2 1 358